voltage (V),energy (Wh),energy rate (W),Current Time
8.607,41.7109,3.64937,1662679520.0901294
8.607,41.7109,3.64937,1662679521.0810335
8.606,41.7109,3.3047,1662679522.0818617
8.606,41.7109,3.27889,1662679523.0894897
8.606,41.7109,3.27889,1662679524.0817108
8.574,41.7109,5.03294,1662679525.0927949
8.574,41.7109,5.03294,1662679526.088371
8.595,41.7032,3.92791,1662679527.0889735
8.595,41.7032,3.92791,1662679528.0927269
8.603,41.7032,3.62186,1662679529.0994265
8.603,41.7032,3.62186,1662679530.097522
8.611,41.7032,2.85024,1662679531.0899131
8.605,41.7032,2.53848,1662679532.0883861
8.604,41.7032,2.68445,1662679533.0924263
8.604,41.7032,2.68445,1662679534.0879226
8.611,41.7032,2.5833,1662679535.091594
8.608,41.6955,2.49632,1662679536.1018574
8.608,41.6955,2.49632,1662679537.0947289
8.608,41.6955,2.49632,1662679538.0956283
8.608,41.6955,2.49632,1662679539.0890429
8.611,41.6955,2.41108,1662679540.0897851
8.606,41.6955,2.34944,1662679541.0945351
8.606,41.6955,2.50435,1662679542.0909634
8.606,41.6955,2.50435,1662679543.0877612
8.613,41.6955,2.37719,1662679544.0948575
8.613,41.6955,2.37719,1662679545.0891347
8.609,41.6955,2.41913,1662679546.0921786
8.607,41.6955,2.52185,1662679547.0946834
8.607,41.6955,2.52185,1662679548.0858047
8.61,41.6878,2.34192,1662679549.0853593
8.609,41.6878,2.36747,1662679550.0936387
8.609,41.6878,2.36747,1662679551.0907292
8.613,41.6878,2.46332,1662679552.0886955
8.612,41.6878,2.34246,1662679553.0957761
8.612,41.6878,2.34246,1662679554.0877397
8.61,41.6878,2.41941,1662679555.090399
8.614,41.6878,2.44638,1662679556.0964651
8.614,41.6878,2.44638,1662679557.0912352
8.605,41.6878,2.45242,1662679558.0924578
8.605,41.6878,2.45242,1662679559.0890865
8.614,41.6878,2.43776,1662679560.092545
8.609,41.6801,2.37608,1662679561.0914166
8.609,41.6801,2.37608,1662679562.0875361
8.609,41.6801,2.45356,1662679563.0915792
8.612,41.6801,2.50609,1662679564.0926149
8.612,41.6801,2.50609,1662679565.0893419
8.608,41.6801,2.41024,1662679566.091696
8.608,41.6801,2.43606,1662679567.0995815
8.608,41.6801,2.43606,1662679568.0905569
8.611,41.6801,2.4283,1662679569.0915523
8.606,41.6801,2.42689,1662679570.0947013
8.606,41.6801,2.42689,1662679571.0874865
8.611,41.6801,2.43691,1662679572.0895565
8.611,41.6801,2.37664,1662679573.0955944
8.611,41.6801,2.37664,1662679574.0915649
8.606,41.6724,2.39247,1662679575.0904167
8.606,41.6724,2.39247,1662679576.0886667
8.611,41.6724,2.41969,1662679577.0895498
8.606,41.6724,2.37526,1662679578.0915933
8.606,41.6724,2.37526,1662679579.088654
8.608,41.6724,2.45328,1662679580.0876329
8.611,41.6724,2.39386,1662679581.0937107
8.611,41.6724,2.39386,1662679582.0937805
8.605,41.6724,2.4094,1662679583.09266
8.605,41.6724,2.4094,1662679584.0882185
8.608,41.6724,2.41024,1662679585.0905893
8.603,41.6724,2.40884,1662679586.0896325
8.603,41.6724,2.40884,1662679587.0984831
8.607,41.6647,2.4616,1662679588.0937002
8.608,41.6647,2.59101,1662679589.0934291
8.608,41.6647,2.59101,1662679590.087496
8.603,41.6647,2.73575,1662679591.0914567
8.604,41.6647,2.46074,1662679592.0945966
8.604,41.6647,2.46074,1662679593.0870404
8.607,41.6647,2.55628,1662679594.0895312
8.605,41.6647,2.52987,1662679595.0926247
8.605,41.6647,2.52987,1662679596.0874422
8.605,41.6647,2.65895,1662679597.0884321
8.608,41.6647,2.53075,1662679598.09059
8.608,41.6647,2.53075,1662679599.0917165
8.601,41.657,2.5545,1662679600.0877171
8.606,41.657,2.37526,1662679601.0964363
8.606,41.657,2.37526,1662679602.0897412
8.604,41.657,2.48656,1662679603.0936773
8.604,41.657,2.44354,1662679604.0901916
8.603,41.657,2.44325,1662679605.0864906
8.609,41.657,2.42774,1662679606.0954463
8.609,41.657,2.42774,1662679607.0955367
8.602,41.657,2.44297,1662679608.0855668
8.601,41.657,2.5631,1662679609.0906782
8.601,41.657,2.5631,1662679610.0877333
8.607,41.6493,2.45299,1662679611.0876081
8.6,41.6493,2.5542,1662679612.0995991
8.6,41.6493,2.5542,1662679613.0866358
8.606,41.6493,2.4441,1662679614.0906527
8.604,41.6493,2.46074,1662679615.0892785
8.604,41.6493,2.46074,1662679616.0898488
8.604,41.6493,2.51237,1662679617.0921106
8.604,41.6493,2.51237,1662679618.0864568
8.605,41.6493,2.4094,1662679619.0867124
8.601,41.6493,2.41688,1662679620.0943952
8.601,41.6493,2.41688,1662679621.0909312
8.604,41.6493,2.5812,1662679622.0986803
8.604,41.6416,2.40912,1662679623.0926781
8.602,41.6416,2.40856,1662679624.0915387
8.602,41.6416,2.46877,1662679625.0986147
8.592,41.6416,2.38858,1662679626.0936182
8.592,41.6416,2.38858,1662679627.0915799
8.586,41.6416,2.34398,1662679628.0944393
8.586,41.6416,2.34398,1662679629.0897059
8.593,41.6416,2.48338,1662679630.0882614
8.596,41.6416,2.34671,1662679631.0891485
8.596,41.6416,2.34671,1662679632.0917649
8.596,41.6416,2.50144,1662679633.0905156
8.597,41.6416,2.42435,1662679634.0926368
8.597,41.6416,2.42435,1662679635.0909681
8.593,41.6339,2.36307,1662679636.094593
8.593,41.6339,2.36307,1662679637.0875723
8.602,41.6339,2.43437,1662679638.0926435
8.604,41.6339,2.42633,1662679639.0943608
8.599,41.6339,2.31313,1662679640.0954335
8.599,41.6339,2.31313,1662679641.0885954
8.6,41.6339,2.5628,1662679642.0903747
8.6,41.6339,2.5628,1662679643.0876153
8.6,41.6339,2.3994,1662679644.0906034
8.598,41.6339,2.39884,1662679645.0904286
8.599,41.6339,2.41632,1662679646.0946226
8.599,41.6339,2.41632,1662679647.0866215
8.602,41.6339,2.44297,1662679648.0894861
8.602,41.6339,2.44297,1662679649.0878537
8.597,41.6262,2.49313,1662679650.0946529
8.596,41.6262,2.67336,1662679651.097554
8.596,41.6262,2.67336,1662679652.0876398
8.593,41.6262,2.55212,1662679653.0935283
8.593,41.6262,2.53493,1662679654.0934143
8.593,41.6262,2.53493,1662679655.0877912
8.601,41.6262,2.5717,1662679656.0940173
8.597,41.6262,2.50173,1662679657.0906627
8.597,41.6262,2.50173,1662679658.0895178
8.597,41.6262,2.52752,1662679659.0884109
8.602,41.6262,2.46877,1662679660.0935125
8.602,41.6262,2.46877,1662679661.0945637
8.591,41.6185,2.49998,1662679662.0880389
8.594,41.6185,2.42351,1662679663.0916018
8.594,41.6185,2.42351,1662679664.0894485
8.597,41.6185,2.45014,1662679665.0886929
8.591,41.6185,2.42266,1662679666.0906856
8.591,41.6185,2.42266,1662679667.0894134
8.595,41.6185,2.38941,1662679668.0896108
8.597,41.6185,2.45014,1662679669.0889907
8.597,41.6185,2.45014,1662679670.0882368
8.589,41.6185,2.40492,1662679671.0884948
8.589,41.6185,2.40492,1662679672.093483
8.597,41.6185,2.40716,1662679673.0885665
8.596,41.6108,2.40688,1662679674.0924668
8.596,41.6108,2.40688,1662679675.0891032
8.593,41.6108,2.41463,1662679676.0886052
8.596,41.6108,2.52722,1662679677.0955253
8.596,41.6108,2.52722,1662679678.0899129
8.594,41.6108,2.38054,1662679679.088671
8.594,41.6108,2.38054,1662679680.0997033
8.598,41.6108,2.40744,1662679681.0918341
8.598,41.6108,2.40744,1662679682.0895531
8.594,41.6108,2.39773,1662679683.0895021
8.594,41.6108,2.39773,1662679684.0876315
8.597,41.6108,2.38997,1662679685.0872574
8.601,41.6031,2.41688,1662679686.0924225
8.601,41.6031,2.41688,1662679687.0882168
8.594,41.6031,2.38913,1662679688.0902817
8.59,41.6031,2.43956,1662679689.0962999
8.59,41.6031,2.43956,1662679690.0876794
8.596,41.6031,2.38969,1662679691.0914652
8.592,41.6031,2.41435,1662679692.0934358
8.592,41.6031,2.41435,1662679693.0872602
8.599,41.6031,2.38192,1662679694.0936637
8.599,41.6031,2.34753,1662679695.0907638
8.6,41.6031,2.3478,1662679696.0925603
8.593,41.6031,2.36307,1662679697.0944958
8.593,41.6031,2.36307,1662679698.0917528
8.601,41.5954,2.32227,1662679699.0873675
8.593,41.5954,2.3373,1662679700.0926809
8.593,41.5954,2.3373,1662679701.0898731
8.594,41.5954,2.4321,1662679702.0897572
8.601,41.5954,2.32227,1662679703.0944328
8.601,41.5954,2.32227,1662679704.090857
8.591,41.5954,2.36252,1662679705.093513
8.591,41.5954,2.36252,1662679706.0966742
8.593,41.5954,2.48338,1662679707.0888689
8.598,41.5954,2.33866,1662679708.0914159
8.591,41.5954,2.2938,1662679709.0957317
8.591,41.5954,2.2938,1662679710.091841
8.591,41.5954,2.6718,1662679711.0956209
8.597,41.5877,2.48453,1662679712.0955896
8.597,41.5877,2.48453,1662679713.0957472
8.591,41.5877,2.45703,1662679714.0915287
8.592,41.5877,2.49168,1662679715.0924482
8.592,41.5877,2.49168,1662679716.0945051
8.582,41.5877,2.47162,1662679717.0904803
8.582,41.5877,2.47162,1662679718.0860722
8.59,41.5877,2.43097,1662679719.0956798
8.589,41.5877,2.5767,1662679720.093591
8.589,41.5877,2.5767,1662679721.0865562
8.591,41.5877,2.31957,1662679722.0935457
8.589,41.5877,2.41351,1662679723.0893314
8.589,41.5877,2.41351,1662679724.087023
8.597,41.5877,2.41576,1662679725.0936615
8.592,41.58,2.33702,1662679726.0946202
8.591,41.58,2.41407,1662679727.0923834
8.591,41.58,2.41407,1662679728.0906503
8.596,41.58,2.32092,1662679729.0903895
8.596,41.58,2.32092,1662679730.0861733
8.592,41.58,2.34562,1662679731.0926726
8.592,41.58,2.35421,1662679732.0895431
8.592,41.58,2.35421,1662679733.0905085
8.596,41.58,2.33811,1662679734.0915494
8.596,41.58,2.3553,1662679735.0895844
8.592,41.58,2.35421,1662679736.0885746
8.594,41.58,2.42351,1662679737.0903752
8.594,41.58,2.42351,1662679738.089674
8.592,41.5723,2.3628,1662679739.0938854
8.591,41.5723,2.31957,1662679740.0946999
8.591,41.5723,2.31957,1662679741.0897338
8.595,41.5723,2.398,1662679742.0946312
8.592,41.5723,2.42294,1662679743.0926747
8.592,41.5723,2.42294,1662679744.0867865
8.59,41.5723,2.3193,1662679745.0905538
8.595,41.5723,2.33784,1662679746.0985551
8.595,41.5723,2.33784,1662679747.0937471
8.589,41.5723,2.3448,1662679748.0883231
8.587,41.5723,2.33566,1662679749.0944505
8.587,41.5723,2.33566,1662679750.0858767
8.59,41.5723,2.37084,1662679751.08781
8.587,41.5646,2.36142,1662679752.091331
8.587,41.5646,2.36142,1662679753.0864949
8.586,41.5646,2.37832,1662679754.0924573
8.592,41.5646,2.34562,1662679755.096211
8.592,41.5646,2.34562,1662679756.0898535
8.586,41.5646,2.36115,1662679757.0906389
8.586,41.5646,2.35256,1662679758.0964539
8.586,41.5646,2.35256,1662679759.0936391
8.591,41.5646,2.34534,1662679760.0889044
8.59,41.5646,2.37084,1662679761.0894973
8.59,41.5646,2.37084,1662679762.089535
8.592,41.5646,2.41435,1662679763.0893264
8.59,41.5646,2.29353,1662679764.0894334
8.59,41.5646,2.29353,1662679765.0864024
8.59,41.5569,2.36225,1662679766.09219
8.59,41.5569,2.36225,1662679767.0897472
8.592,41.5569,2.3628,1662679768.0894415
8.589,41.5569,2.32762,1662679769.0947592
8.589,41.5569,2.32762,1662679770.0908656
8.59,41.5569,2.50828,1662679771.0873938
8.59,41.5569,2.577,1662679772.0985811
8.59,41.5569,2.577,1662679773.0914528
8.587,41.5569,2.5074,1662679774.092551
8.589,41.5569,2.49081,1662679775.0943944
8.589,41.5569,2.49081,1662679776.0869308
8.589,41.5492,2.39633,1662679777.0913415
8.589,41.5492,2.39633,1662679778.0878439
8.587,41.5492,2.49882,1662679779.0916684
8.59,41.5492,2.52546,1662679780.0926375
8.59,41.5492,2.52546,1662679781.0897052
8.585,41.5492,2.45531,1662679782.0934343
8.59,41.5492,2.42238,1662679783.0983019
8.59,41.5492,2.42238,1662679784.0917463
8.588,41.5492,2.33594,1662679785.0915964
8.587,41.5492,2.33566,1662679786.0954988
8.587,41.5492,2.33566,1662679787.0935512
8.593,41.5492,2.36307,1662679788.0893304
8.589,41.5492,2.36197,1662679789.0895879
8.589,41.5492,2.36197,1662679790.0875111
8.588,41.5415,2.34452,1662679791.0943053
8.588,41.5415,2.34452,1662679792.0878532
8.584,41.5415,2.42069,1662679793.0886822
8.585,41.5415,2.35229,1662679794.0994582
8.585,41.5415,2.35229,1662679795.087656
8.59,41.5415,2.36225,1662679796.0915446
8.586,41.5415,2.37832,1662679797.0894074
8.586,41.5415,2.37832,1662679798.0937715
8.585,41.5415,2.36946,1662679799.089468
8.59,41.5415,2.35366,1662679800.0923536
8.59,41.5415,2.35366,1662679801.0875344
8.584,41.5415,2.42069,1662679802.0904202
8.585,41.5338,2.42955,1662679803.0956762
8.585,41.5338,2.42955,1662679804.0907826
8.591,41.5338,2.35393,1662679805.0926821
8.588,41.5338,2.31876,1662679806.0915735
8.588,41.5338,2.31876,1662679807.0904949
8.586,41.5338,2.37832,1662679808.096596
8.591,41.5338,2.37971,1662679809.0966754
8.591,41.5338,2.37971,1662679810.0876215
8.585,41.5338,2.32653,1662679811.0881402
8.583,41.5338,2.36891,1662679812.0905519
8.583,41.5338,2.36891,1662679813.0906868
8.59,41.5338,2.35366,1662679814.0934215
8.583,41.5338,2.40324,1662679815.0956924
8.583,41.5338,2.40324,1662679816.0867448
8.584,41.5261,2.35202,1662679817.0956497
8.584,41.5261,2.35202,1662679818.0896592
8.567,41.5261,2.86994,1662679819.088593
8.584,41.5261,2.3091,1662679820.0955482
8.584,41.5261,2.39494,1662679821.0907896
8.584,41.5261,2.39494,1662679822.0898185
8.587,41.5261,2.41295,1662679823.0925515
8.587,41.5261,2.41295,1662679824.0892031
8.582,41.5261,2.36863,1662679825.0934315
8.585,41.5261,2.33512,1662679826.0945294
8.585,41.5261,2.33512,1662679827.0905216
8.586,41.5184,2.38691,1662679828.0925319
8.582,41.5184,2.32572,1662679829.0936148
8.582,41.5184,2.32572,1662679830.0885327
8.589,41.5184,2.46504,1662679831.0944371
8.586,41.5184,2.50711,1662679832.0946338
8.586,41.5184,2.50711,1662679833.0866671
8.582,41.5184,2.47162,1662679834.0956404
8.584,41.5184,2.50653,1662679835.0904016
8.584,41.5184,2.50653,1662679836.0882752
8.579,41.5184,2.42786,1662679837.0934758
8.58,41.5184,2.47104,1662679838.0903344
8.58,41.5184,2.47104,1662679839.0916598
8.581,41.5184,2.49707,1662679840.0975688
8.581,41.5184,2.49707,1662679841.0880821
8.578,41.5107,2.46189,1662679842.0886912
8.579,41.5107,2.58228,1662679843.0973952
8.579,41.5107,2.58228,1662679844.087513
8.581,41.5107,2.32545,1662679845.0862873
8.579,41.5107,2.34207,1662679846.098676
8.579,41.5107,2.34207,1662679847.0917742
8.583,41.5107,2.41182,1662679848.0936809
8.583,41.5107,2.37749,1662679849.0944428
8.583,41.5107,2.37749,1662679850.0879412
8.581,41.5107,2.35119,1662679851.092591
8.585,41.5107,2.3437,1662679852.0936835
8.585,41.5107,2.3437,1662679853.0898728
8.576,41.503,2.52992,1662679854.0807912
8.582,41.503,2.48878,1662679855.0809164
8.582,41.503,2.48878,1662679856.0769753
8.572,41.503,2.43445,1662679857.0820887
8.594,41.503,1.40942,1662679858.0815189
8.594,41.503,1.41801,1662679859.081943
8.595,41.503,1.39239,1662679860.081893
8.594,41.503,1.40082,1662679861.0818491
8.59,41.503,1.52043,1662679862.0809121
8.592,41.503,1.44346,1662679863.0798922
8.592,41.503,1.44346,1662679864.0808094
8.594,41.503,1.40082,1662679865.0808029
8.595,41.503,1.38379,1662679866.083117
8.595,41.503,1.38379,1662679867.0809875
8.596,41.503,1.36676,1662679868.0809572
8.596,41.503,1.46992,1662679869.0818412
8.585,41.503,1.46803,1662679870.081893
8.596,41.503,1.40115,1662679871.0808311
8.595,41.503,1.38379,1662679872.0809476
8.595,41.503,1.38379,1662679873.0769529
8.594,41.4953,1.4352,1662679874.0809515
8.597,41.4953,1.38412,1662679875.0891964
8.596,41.4953,1.37536,1662679876.0820425
8.595,41.4953,1.3752,1662679877.0807548
8.595,41.4953,1.3752,1662679878.0809779
8.594,41.4953,1.36645,1662679879.0808544
8.594,41.4953,1.36645,1662679880.0779388
8.596,41.4953,1.39255,1662679881.0838795
8.596,41.4953,1.39255,1662679882.0808697
8.591,41.4953,1.46047,1662679883.0809686
8.596,41.4953,1.40974,1662679884.0808022
8.596,41.4953,1.39255,1662679885.0820129
8.595,41.4953,1.34941,1662679886.0813675
8.595,41.4953,1.34941,1662679887.0869179
8.595,41.4953,1.3752,1662679888.0818331
8.595,41.4953,1.34941,1662679889.0839467
8.595,41.4953,1.34082,1662679890.085407
8.595,41.4953,1.5471,1662679891.0862243
8.594,41.4953,1.54692,1662679892.0799882
8.596,41.4953,1.40115,1662679893.0818808
8.596,41.4953,1.40974,1662679894.0815523
8.596,41.4953,1.40974,1662679895.0779202
8.594,41.4876,1.52973,1662679896.0809336
8.594,41.4876,1.47817,1662679897.0810251
8.594,41.4876,1.51254,1662679898.0809398
8.594,41.4876,1.51254,1662679899.0808592
8.594,41.4876,1.45239,1662679900.0809844
8.594,41.4876,1.45239,1662679901.0810151
8.594,41.4876,1.45239,1662679902.0778461
8.596,41.4876,1.48711,1662679903.0808496
8.596,41.4876,1.48711,1662679904.0809176
8.595,41.4876,1.50412,1662679905.0821581
8.597,41.4876,1.38412,1662679906.0799503
8.596,41.4876,1.35817,1662679907.0809972
8.597,41.4876,1.34973,1662679908.0825415
8.597,41.4876,1.37552,1662679909.0860648
8.597,41.4876,1.33254,1662679910.0799723
8.598,41.4876,1.35848,1662679911.0851266
8.598,41.4876,1.34129,1662679912.0859399
8.596,41.4876,1.37536,1662679913.0818369
8.596,41.4876,1.37536,1662679914.0809109
8.597,41.4876,1.35833,1662679915.0831404
8.597,41.4876,1.35833,1662679916.0799124
8.595,41.4799,1.47834,1662679917.0809441
8.595,41.4799,1.3666,1662679918.080795
8.593,41.4799,1.37488,1662679919.0809619
8.593,41.4799,1.37488,1662679920.0829363
8.593,41.4799,1.40925,1662679921.0789664
8.592,41.4799,1.51219,1662679922.0787983
8.592,41.4799,1.37472,1662679923.0807486
8.593,41.4799,1.41784,1662679924.0816872
8.593,41.4799,1.41784,1662679925.0808494
8.594,41.4799,1.34066,1662679926.0818925
8.594,41.4799,1.39223,1662679927.0798941
8.591,41.4799,1.37456,1662679928.0809214
8.591,41.4799,1.37456,1662679929.0808382
8.595,41.4799,1.38379,1662679930.0797303
8.595,41.4799,1.40958,1662679931.080919
8.595,41.4799,1.40958,1662679932.0858438
8.596,41.4799,1.40115,1662679933.0799897
8.594,41.4799,1.45239,1662679934.0796359
8.595,41.4799,1.33222,1662679935.0819209
8.595,41.4799,1.33222,1662679936.0809252
8.596,41.4799,1.34957,1662679937.081866
8.596,41.4799,1.34957,1662679938.0809512
8.596,41.4722,1.39255,1662679939.0818775
8.596,41.4722,1.34098,1662679940.0858202
8.596,41.4722,1.34098,1662679941.0821202
8.597,41.4722,1.35833,1662679942.0808713
8.597,41.4722,1.35833,1662679943.0808315
8.596,41.4722,1.43553,1662679944.0788243
8.597,41.4722,1.36692,1662679945.0807199
8.597,41.4722,1.34113,1662679946.0808134
8.597,41.4722,1.34113,1662679947.0850115
8.596,41.4722,1.36676,1662679948.0789838
8.596,41.4722,1.37536,1662679949.0809262
8.596,41.4722,1.38396,1662679950.0829191
8.596,41.4722,1.38396,1662679951.0809634
8.595,41.4722,1.5385,1662679952.0777097
8.596,41.4722,1.39255,1662679953.0809059
8.596,41.4722,1.34098,1662679954.0807221
8.596,41.4722,1.34098,1662679955.0777783
8.597,41.4722,1.39271,1662679956.0809867
8.596,41.4722,1.4957,1662679957.0819836
8.596,41.4722,1.4957,1662679958.0826335
8.587,41.4722,1.57142,1662679959.0825372
8.597,41.4722,1.48728,1662679960.0799348
8.594,41.4645,1.51254,1662679961.0807259
8.594,41.4645,1.51254,1662679962.0841367
8.594,41.4645,1.49536,1662679963.0820966
8.594,41.4645,1.5727,1662679964.0808573
8.594,41.4645,1.5727,1662679965.0810659
8.594,41.4645,1.51254,1662679966.0850902
8.595,41.4645,1.3666,1662679967.0810332
8.594,41.4645,1.38363,1662679968.080863
8.595,41.4645,1.38379,1662679969.0849912
8.595,41.4645,1.38379,1662679970.0788553
8.595,41.4645,1.3752,1662679971.0855558
8.594,41.4645,1.39223,1662679972.0797575
8.594,41.4645,1.39223,1662679973.0813861
8.594,41.4645,1.34926,1662679974.0809124
8.595,41.4645,1.35801,1662679975.0809619
8.596,41.4645,1.34098,1662679976.0800393
8.596,41.4645,1.46132,1662679977.0809674
8.596,41.4645,1.36676,1662679978.0815289
8.595,41.4645,1.3666,1662679979.0798638
8.596,41.4645,1.34957,1662679980.0803528
8.595,41.4645,1.34082,1662679981.0819838
8.592,41.4568,1.48642,1662679982.0806577
8.592,41.4568,1.48642,1662679983.0798354
8.595,41.4568,1.41817,1662679984.0819564
8.594,41.4568,1.36645,1662679985.0818846
8.594,41.4568,1.39223,1662679986.0809498
8.594,41.4568,1.38363,1662679987.0850966
8.594,41.4568,1.41801,1662679988.0839877
8.594,41.4568,1.40082,1662679989.0818291
8.594,41.4568,1.40082,1662679990.0788107
8.595,41.4568,1.3666,1662679991.0811338
8.591,41.4568,1.39174,1662679992.0831625
8.593,41.4568,1.34051,1662679993.0809841
8.593,41.4568,1.34051,1662679994.0819666
8.594,41.4568,1.39223,1662679995.080934
8.593,41.4568,1.35769,1662679996.0850985
8.593,41.4568,1.35769,1662679997.0800173
8.594,41.4568,1.4266,1662679998.0809646
8.594,41.4568,1.33207,1662679999.0809655
8.594,41.4568,1.33207,1662680000.0776238
8.595,41.4568,1.34941,1662680001.0830998
8.594,41.4568,1.40082,1662680002.0850632
8.595,41.4568,1.38379,1662680003.0853257
8.595,41.4568,1.38379,1662680004.0809512
8.595,41.4491,1.35801,1662680005.084971
8.594,41.4491,1.34926,1662680006.0810449
8.594,41.4491,1.34926,1662680007.0821013
8.593,41.4491,1.41784,1662680008.0858757
8.592,41.4491,1.40909,1662680009.0818319
8.592,41.4491,1.40909,1662680010.0808218
8.588,41.4491,1.54584,1662680011.076678
8.585,41.4491,1.86294,1662680012.0778604
8.591,41.4491,1.40033,1662680013.080888
8.591,41.4491,1.40033,1662680014.0808909
8.589,41.4491,1.39142,1662680015.0825758
8.59,41.4491,1.39158,1662680016.0820186
8.59,41.4491,1.39158,1662680017.0808604
8.591,41.4491,1.41751,1662680018.0809596
8.59,41.4491,1.49466,1662680019.0808203
8.59,41.4491,1.49466,1662680020.078933
8.591,41.4491,1.50342,1662680021.0808182
8.592,41.4491,1.49501,1662680022.0819051
8.593,41.4491,1.51237,1662680023.0809863
8.593,41.4491,1.51237,1662680024.080857
8.591,41.4491,1.46047,1662680025.0809669
8.592,41.4414,1.49501,1662680026.0799325
8.594,41.4414,1.49536,1662680027.0808043
8.592,41.4414,1.51219,1662680028.0809743
8.593,41.4414,1.39207,1662680029.0787396
8.594,41.4414,1.34926,1662680030.0806708
8.596,41.4414,1.39255,1662680031.0809481
8.593,41.4414,1.37488,1662680032.0808208
8.594,41.4414,1.40082,1662680033.0810373
8.594,41.4414,1.40082,1662680034.0818632
8.596,41.4414,1.37536,1662680035.0819318
8.596,41.4414,1.37536,1662680036.0788951
8.587,41.4414,1.48555,1662680037.0799401
8.594,41.4414,1.40082,1662680038.0851293
8.593,41.4414,1.36629,1662680039.0810306
8.595,41.4414,1.47834,1662680040.0798001
8.594,41.4414,1.39223,1662680041.0819762
8.592,41.4414,1.46064,1662680042.080935
8.592,41.4414,1.33176,1662680043.0798352
8.592,41.4414,1.33176,1662680044.0849149
8.594,41.4414,1.4266,1662680045.0807464
8.592,41.4414,1.36613,1662680046.0808277
8.592,41.4337,1.43486,1662680047.0808058
8.592,41.4337,1.43486,1662680048.0849736
8.589,41.4337,1.37424,1662680049.0808973
8.593,41.4337,1.33191,1662680050.0809133
8.592,41.4337,1.4005,1662680051.081939
8.592,41.4337,1.4005,1662680052.0809977
8.592,41.4337,1.3919,1662680053.0847499
8.592,41.4337,1.3919,1662680054.0829134
8.591,41.4337,1.45188,1662680055.0829298
8.591,41.4337,1.37456,1662680056.0809469
8.591,41.4337,1.38315,1662680057.0798118
8.592,41.4337,1.37472,1662680058.0809937
8.592,41.4337,1.34035,1662680059.0808384
8.592,41.4337,1.4005,1662680060.0798554
8.592,41.4337,1.34894,1662680061.0800219
8.583,41.4337,1.39903,1662680062.0807762
8.586,41.4337,1.45962,1662680063.0819354
8.586,41.4337,1.45962,1662680064.0799608
8.59,41.4337,1.45171,1662680065.0797372
8.59,41.4337,1.36581,1662680066.0810621
8.59,41.4337,1.43453,1662680067.085943
8.59,41.4337,1.43453,1662680068.0819883
8.592,41.4337,1.31458,1662680069.0808837
8.592,41.4337,1.31458,1662680070.0809503
8.592,41.426,1.43486,1662680071.0858579
8.592,41.426,1.43486,1662680072.0799761
8.59,41.426,1.50325,1662680073.0817037
8.59,41.426,1.50325,1662680074.0819921
8.592,41.426,1.3919,1662680075.0797524
8.591,41.426,1.42611,1662680076.0808861
8.59,41.426,1.34863,1662680077.0849555
8.59,41.426,1.34863,1662680078.0809522
8.592,41.426,1.32317,1662680079.0819197
8.591,41.426,1.40892,1662680080.0809813
8.591,41.426,1.46906,1662680081.0808499
8.591,41.426,1.46906,1662680082.0849929
8.589,41.426,1.55461,1662680083.0799055
8.592,41.426,1.5036,1662680084.0808742
8.59,41.426,1.53761,1662680085.0808771
8.59,41.426,1.4603,1662680086.079751
8.59,41.426,1.4603,1662680087.0818589
8.59,41.426,1.48607,1662680088.0818794
8.59,41.426,1.4603,1662680089.0818481
8.591,41.426,1.37456,1662680090.0809705
8.591,41.426,1.37456,1662680091.0807962
8.589,41.4183,1.34847,1662680092.0808301
8.59,41.4183,1.44312,1662680093.0808828
8.591,41.4183,1.32301,1662680094.0808806
8.586,41.4183,1.41669,1662680095.0829344